Theta_e
328 328 329 327 328 328 327 327 328 329 329 327 328 329 329 329 329 328 329 329 328 328 328 328 327 328 326 326 327 326 326 326 325 326 327 328 327 325 321 321 325 326 328 329 329 330 330 330 331 331 332 333 333 333 333 332 332 332 332 331 331 332 331 331 330 330 330 329 329 330 330 329 328 327 327 326 326 325 325 325 325 325 325 324 324
328 328 328 327 328 327 327 327 327 327 327 326 325 328 329 329 330 330 329 328 326 327 324 324 326 326 326 325 325 325 327 326 326 325 327 326 327 327 317 321 322 326 327 327 327 329 329 329 330 330 331 332 332 332 332 332 331 331 331 331 331 331 331 331 330 330 330 330 329 330 330 329 328 328 327 327 327 326 326 325 325 326 325 326 325
329 329 329 329 328 328 327 327 326 326 326 325 327 327 329 330 329 328 327 326 324 324 322 323 325 326 327 326 326 326 326 326 326 327 326 326 327 328 333 317 322 323 325 325 326 326 327 328 328 329 330 331 331 331 331 330 330 330 330 331 331 331 331 331 330 330 329 330 330 330 329 328 328 329 328 328 328 327 327 327 326 326 325 326 326
332 331 331 330 329 328 329 328 327 327 326 326 326 326 327 328 330 329 329 325 323 325 326 324 325 327 328 326 327 326 326 326 326 326 326 327 327 327 327 329 317 321 322 323 324 324 326 326 327 327 328 329 329 329 329 329 330 329 330 331 331 330 330 330 330 329 329 329 329 329 328 328 328 329 329 329 329 328 329 329 328 327 326 327 326
332 332 331 330 330 329 329 329 329 328 326 327 327 327 325 326 326 327 324 325 324 326 328 326 325 327 328 326 326 326 327 327 327 326 326 328 326 326 327 327 327 316 317 320 322 323 323 325 325 326 327 327 326 327 327 328 328 329 329 329 330 329 330 329 328 328 328 328 328 328 328 328 328 328 328 327 328 328 328 328 328 328 329 330 329
333 332 331 330 331 330 330 329 330 330 329 329 327 327 326 325 325 325 323 324 325 327 326 326 326 326 327 327 327 326 326 326 326 325 327 326 326 327 326 326 326 327 327 315 318 320 322 323 324 324 325 324 324 325 326 327 328 328 328 327 328 328 327 327 327 326 326 326 325 325 325 326 326 326 327 326 326 326 327 327 327 328 328 329 329
333 332 331 331 330 330 329 330 331 331 330 329 329 328 328 328 327 326 327 326 327 327 326 325 325 325 325 325 325 326 326 325 326 326 326 327 327 330 326 325 325 326 325 325 312 317 319 321 322 322 323 323 323 324 324 325 325 325 325 325 326 326 325 325 324 324 324 324 324 324 323 323 323 324 325 325 325 325 326 327 327 327 327 328 327
333 333 331 331 330 330 330 331 331 330 330 330 329 329 328 329 329 328 326 326 326 326 326 325 325 324 326 325 325 325 325 324 325 325 326 328 326 325 325 325 326 323 318 324 324 319 316 318 319 321 321 321 322 322 323 324 324 324 323 323 324 324 323 323 323 322 322 322 322 323 323 323 324 325 325 325 325 325 326 326 326 326 326 326 326
333 334 332 332 331 330 331 332 332 330 329 329 329 329 328 329 328 328 328 325 326 325 326 326 325 324 324 324 325 324 323 324 324 324 328 325 324 324 325 325 323 315 323 324 325 324 315 315 318 319 317 318 320 320 321 322 322 323 322 321 323 322 321 321 322 322 322 322 322 322 322 323 323 323 323 323 323 324 324 324 325 325 326 326 326
334 334 333 332 332 331 332 332 332 330 329 329 329 329 329 328 327 328 327 326 325 324 324 324 325 324 323 323 324 324 323 324 325 322 324 323 323 324 324 323 324 323 322 325 324 322 322 319 314 315 312 317 318 318 318 318 319 321 321 321 320 323 322 322 322 322 321 321 322 322 322 322 322 322 322 322 322 323 323 323 323 324 324 325 325
333 333 332 331 330 331 331 332 332 330 329 328 328 328 328 328 327 326 327 327 325 324 324 325 324 323 323 322 323 322 323 324 325 324 324 325 323 322 324 322 321 322 322 324 321 322 321 320 319 319 318 313 316 316 315 315 316 318 319 320 322 322 322 322 322 321 320 320 320 320 321 321 321 321 321 322 322 322 322 322 322 323 323 323 324
333 333 332 330 330 330 331 332 332 330 328 327 327 327 327 327 327 326 326 326 326 325 325 323 323 322 321 322 323 322 322 324 324 323 322 323 322 321 321 322 323 321 322 323 321 320 320 319 316 317 317 314 313 315 313 313 314 316 317 319 321 321 321 321 321 319 319 319 319 319 319 319 319 319 320 320 321 321 321 321 322 322 322 322 322
332 332 331 328 330 330 331 331 331 330 328 328 328 327 327 327 326 326 325 324 324 325 325 324 321 319 320 320 320 322 323 323 321 321 321 322 322 321 322 321 321 321 320 324 323 323 319 318 317 316 315 315 313 311 312 311 311 314 315 316 319 320 321 320 320 319 318 317 317 317 317 317 318 319 319 320 320 320 320 321 321 321 322 322 322
332 332 331 330 329 330 330 330 330 330 329 329 328 325 327 327 327 324 326 323 321 323 324 322 318 317 315 316 318 320 323 322 320 320 321 322 322 322 323 323 320 321 321 320 320 319 317 316 316 315 314 314 313 313 312 310 309 311 312 313 315 317 318 319 318 318 317 317 317 317 317 316 317 317 318 318 319 318 319 319 319 320 320 321 321
333 331 331 331 330 329 329 330 330 330 328 328 328 328 328 327 327 324 323 324 322 324 323 323 317 318 318 315 312 314 318 318 320 319 319 321 321 321 320 320 318 319 320 319 317 316 316 315 314 314 313 312 312 312 311 308 307 308 309 310 312 315 317 318 317 317 315 315 316 316 316 316 317 317 316 316 316 316 317 318 318 319 319 319 319
334 332 330 330 330 329 330 330 330 330 329 328 327 327 327 327 327 326 324 321 321 321 324 324 321 317 312 313 314 314 309 313 314 316 319 320 319 319 319 318 318 318 320 316 316 315 316 314 315 312 312 311 312 311 310 309 307 306 306 306 308 311 314 317 316 316 315 315 315 315 315 315 315 315 316 316 316 316 315 315 316 316 317 317 317
334 333 330 330 330 330 330 330 330 329 329 328 328 328 328 327 327 325 324 321 319 320 322 323 322 322 317 313 311 310 309 315 315 316 319 317 318 319 319 318 318 318 319 316 316 316 314 313 312 312 312 311 311 310 310 308 307 306 304 305 308 308 310 313 315 315 315 315 315 314 314 314 314 315 315 315 315 315 315 315 315 315 315 315 315
334 334 333 330 331 332 332 331 330 329 329 329 329 328 328 327 327 326 325 324 321 320 320 322 323 323 323 321 319 313 314 315 313 309 316 318 318 318 318 317 317 317 316 315 314 313 313 311 311 311 311 310 310 310 309 307 306 305 303 305 307 308 309 310 313 313 314 314 314 314 314 314 314 313 314 314 314 314 314 314 313 314 314 314 314
332 333 333 332 331 331 331 331 331 331 330 330 328 328 327 328 328 327 326 325 324 320 320 320 319 321 322 322 322 321 320 315 309 312 308 314 320 316 316 317 317 317 316 313 314 312 313 311 311 310 310 310 309 308 308 306 306 305 304 306 307 308 309 309 308 309 311 313 313 312 313 313 312 313 312 313 312 313 313 313 313 313 313 313 314
332 331 332 332 331 331 331 331 330 331 329 329 329 328 328 329 328 328 327 325 324 322 321 321 317 317 318 318 318 319 320 320 318 314 311 308 310 315 319 316 317 318 314 313 312 311 312 310 312 311 309 309 308 307 306 305 302 301 302 305 307 307 307 308 307 307 308 309 310 311 311 312 312 311 312 311 311 312 312 312 312 312 312 312 312
332 331 331 331 330 330 331 331 330 330 329 329 329 329 328 327 327 326 326 325 325 324 323 321 321 319 317 316 318 318 318 319 318 316 311 308 308 310 312 316 318 316 313 312 311 311 310 309 310 309 308 308 307 306 305 303 299 298 301 303 305 306 307 307 307 306 306 306 307 308 309 311 310 310 311 311 310 312 312 311 311 311 311 311 312
331 331 331 331 331 330 330 330 330 330 327 329 329 329 329 328 327 327 326 326 325 324 323 323 323 322 321 319 317 316 316 315 314 313 313 312 308 310 312 310 308 312 317 312 310 309 309 309 309 309 308 307 306 305 305 302 297 297 298 300 302 304 306 305 306 306 306 305 306 306 307 309 309 310 310 310 310 311 310 310 310 311 311 311 311
330 330 331 331 331 329 329 329 329 328 327 328 328 329 329 329 329 328 327 325 324 324 323 323 323 323 322 320 318 317 315 311 310 311 310 306 306 307 310 310 309 308 313 314 310 309 309 309 307 307 307 306 305 305 304 300 296 295 296 299 300 301 302 304 305 305 305 305 305 305 305 306 307 307 308 308 309 310 309 309 309 310 310 310 309
330 330 330 330 330 329 328 328 327 328 327 327 327 327 327 328 327 326 325 325 325 324 323 321 321 322 321 321 320 320 319 316 316 313 311 311 309 308 308 309 309 309 312 313 309 308 308 307 308 307 307 306 304 304 304 302 296 295 295 299 299 300 301 303 304 304 304 303 304 303 304 304 305 305 305 306 307 308 309 308 308 309 308 308 308
328 328 329 330 330 329 328 327 327 327 327 326 326 327 326 326 326 325 325 324 324 324 323 321 321 320 321 322 321 320 319 320 319 314 314 313 311 308 308 310 306 307 309 310 307 307 308 307 307 307 306 305 305 303 303 302 296 295 294 296 298 298 298 300 302 303 303 302 302 303 303 304 304 304 305 305 305 307 307 306 307 307 307 307 307
328 328 329 329 329 329 328 328 328 328 328 328 327 327 326 326 326 325 324 324 324 324 323 321 321 322 323 320 318 318 319 319 318 316 314 312 309 308 305 304 306 305 307 307 307 303 305 306 307 307 306 305 303 302 301 301 297 294 293 295 299 298 297 297 300 301 301 301 301 301 301 302 303 303 303 303 304 304 305 305 306 305 305 306 306
328 329 329 329 329 329 329 329 329 329 328 327 327 326 326 326 325 324 324 324 323 323 322 321 320 321 321 319 317 317 317 317 317 315 315 313 311 310 306 303 303 304 303 304 303 302 304 304 306 306 306 303 302 301 300 300 294 293 292 298 299 297 296 296 299 300 300 300 300 300 301 301 301 302 302 301 302 302 303 303 304 304 304 304 305
329 329 330 329 329 329 329 329 329 329 329 328 327 326 326 325 324 324 323 323 323 321 320 320 320 320 320 318 316 315 315 315 315 315 314 313 313 310 308 306 302 298 301 298 299 301 305 303 305 305 304 301 301 301 298 299 295 293 293 297 297 297 296 295 298 299 298 298 298 299 299 300 300 300 300 300 300 300 300 300 301 301 301 302 302
328 330 329 329 329 329 329 329 329 329 328 327 327 326 325 324 323 322 322 322 321 320 319 318 318 318 317 316 315 314 314 314 314 314 313 311 311 309 309 306 305 301 298 295 297 299 301 302 301 302 303 300 298 301 298 298 293 293 295 295 295 296 295 295 297 298 297 297 297 298 298 299 299 299 299 299 299 299 300 300 299 300 300 301 301
328 330 329 329 329 325 329 328 328 328 327 327 326 325 324 323 322 322 321 320 319 318 317 317 316 316 315 314 315 313 313 312 312 312 310 310 309 308 307 307 306 302 300 296 297 301 301 303 303 300 299 298 298 299 298 297 293 294 294 294 294 294 295 295 296 296 296 296 296 296 297 298 298 298 298 298 298 298 298 298 299 299 300 300 300
327 328 328 328 328 327 327 326 326 326 326 325 325 324 323 322 320 319 318 318 317 315 315 316 315 315 313 313 314 311 311 311 310 309 308 308 307 307 305 305 304 303 301 299 295 299 302 300 300 299 297 297 297 297 297 297 295 294 294 293 294 293 292 294 296 295 295 295 294 295 296 297 297 298 297 297 297 297 297 298 298 298 299 298 298
326 326 326 326 325 324 323 323 322 323 323 323 323 322 321 320 318 316 315 316 314 312 311 312 313 313 312 311 309 308 308 307 306 306 306 306 306 305 304 303 303 303 301 299 296 295 301 300 298 297 296 295 296 295 295 296 296 292 293 292 293 291 293 292 293 294 294 294 294 294 295 296 296 296 296 296 296 296 296 297 297 297 297 297 297
325 324 324 324 324 322 322 320 321 320 321 321 320 319 318 316 315 314 312 313 312 309 308 308 309 310 309 307 306 305 305 304 303 303 303 304 304 304 303 302 301 301 300 297 296 296 298 297 296 296 295 295 293 295 293 293 293 293 292 292 293 292 292 292 292 292 294 293 293 293 294 295 295 295 295 294 294 295 295 296 296 296 295 296 296
324 324 323 323 322 322 320 319 319 319 319 320 316 316 314 313 311 312 310 310 309 307 306 306 306 307 307 304 304 304 305 303 303 302 302 302 302 301 300 300 299 299 299 297 296 295 294 294 294 295 294 294 291 294 292 291 291 291 291 291 292 292 292 292 291 292 293 293 293 293 293 294 294 294 293 293 293 294 295 295 294 294 294 295 295
321 323 322 320 319 319 318 317 317 316 317 315 313 313 312 312 309 308 309 309 307 305 305 304 305 305 304 302 302 303 303 301 301 301 301 301 301 300 299 299 297 297 297 297 295 292 292 291 293 292 292 292 291 291 291 292 292 291 289 290 291 292 292 292 291 292 293 293 292 293 293 293 293 292 292 292 292 293 293 293 293 293 293 293 293
316 315 315 317 316 315 315 313 314 313 313 312 311 311 312 310 308 308 306 307 306 305 305 304 304 304 303 301 300 301 301 300 300 299 299 299 298 298 298 297 296 296 295 295 295 293 291 289 291 290 292 289 290 291 292 291 290 289 289 290 291 290 290 292 291 290 292 292 292 292 292 292 291 291 291 292 292 292 292 293 293 292 292 292 292
313 312 309 309 310 311 311 311 311 310 310 309 310 309 310 310 309 308 307 306 305 305 305 304 300 304 302 301 300 301 301 299 298 297 297 297 296 296 296 295 295 295 294 293 292 292 289 288 289 290 289 289 290 289 290 287 287 287 288 288 288 288 289 290 291 291 291 293 292 292 291 291 290 290 291 291 291 291 292 292 291 291 291 291 290
308 307 307 305 306 308 308 309 309 308 307 308 308 307 306 307 307 307 306 305 305 304 303 303 303 304 303 302 301 301 300 298 297 296 296 295 295 294 294 293 293 292 291 291 290 290 289 289 288 287 288 287 286 287 287 287 285 285 285 286 286 288 286 286 287 289 290 290 289 289 290 289 289 290 290 290 291 291 291 290 290 290 290 290 289
305 304 303 304 302 304 304 304 305 304 304 303 305 305 304 305 304 304 303 303 302 301 300 300 301 302 302 300 300 299 299 298 296 295 295 294 294 293 293 292 292 290 290 289 289 288 288 287 287 287 286 287 286 285 286 287 286 285 284 284 284 285 286 285 285 287 288 289 290 290 289 289 289 289 289 289 289 290 289 289 290 290 290 289 289
302 302 301 302 298 298 299 301 300 299 301 301 301 301 303 303 302 301 301 300 299 298 298 299 298 297 296 296 297 297 298 298 296 294 295 293 292 292 292 291 290 290 289 288 288 287 287 287 286 286 286 285 286 286 286 285 284 284 285 282 282 283 284 284 285 284 286 286 285 286 288 288 288 288 288 288 288 289 289 288 289 289 288 288 289
298 298 299 298 295 295 294 295 295 297 298 298 299 299 299 300 301 301 300 298 297 296 294 293 292 292 292 292 293 294 293 290 290 291 292 291 292 290 290 290 289 289 289 288 288 287 287 286 285 286 285 284 285 284 282 282 281 281 283 283 282 283 283 283 284 285 285 283 284 283 284 284 284 284 284 283 285 287 287 288 287 287 287 288 289
293 293 293 295 295 295 294 293 294 294 296 297 294 295 297 299 299 299 297 296 295 294 292 291 290 290 290 290 288 286 286 287 288 289 290 290 290 291 290 290 289 288 287 287 286 287 285 285 284 284 282 283 283 282 282 282 283 284 283 282 280 282 282 282 282 283 284 282 282 281 282 284 283 282 282 282 284 285 284 284 284 285 286 288 289
293 293 294 294 293 293 294 294 294 294 294 294 292 297 297 297 299 297 295 295 295 294 293 292 290 289 289 288 287 286 286 286 288 288 289 289 289 289 290 290 290 289 287 286 286 286 285 284 283 282 283 282 283 283 282 283 283 283 282 282 282 279 279 279 278 281 283 282 281 280 280 282 281 280 281 282 283 283 284 283 286 286 287 288 288
292 292 293 293 293 293 293 294 295 294 293 291 295 296 296 296 295 296 295 294 293 293 293 292 291 290 289 288 287 288 288 288 288 288 288 288 288 288 288 288 288 289 290 287 286 285 284 284 284 283 283 282 282 282 282 282 282 282 283 282 279 279 278 278 278 278 281 283 280 279 279 281 279 280 280 281 282 282 283 284 286 286 287 288 288
291 292 293 292 292 292 293 293 292 291 291 292 295 295 295 295 295 295 295 294 293 293 293 292 291 290 289 288 288 288 289 286 287 288 287 287 287 287 287 287 287 287 288 287 288 287 286 282 284 284 283 282 281 282 283 283 284 281 281 280 280 280 279 279 279 280 281 282 280 278 277 279 280 279 278 280 281 281 282 283 285 286 287 287 287
291 292 292 291 291 294 294 294 292 291 290 291 294 294 294 294 295 295 295 294 294 294 292 291 291 290 289 288 288 288 288 287 288 288 287 286 286 285 285 285 285 286 286 287 286 285 286 285 284 282 284 284 282 283 284 285 282 279 280 279 280 279 278 278 280 280 281 282 278 277 275 277 278 278 277 279 280 280 280 282 284 285 286 286 286
292 291 291 291 293 291 294 293 292 290 290 291 293 293 294 294 295 295 295 294 294 293 291 291 290 290 289 289 288 288 287 287 288 288 287 286 285 285 284 284 285 285 285 285 285 284 285 287 286 285 285 285 284 284 285 285 283 283 284 280 280 279 280 278 278 279 278 280 276 276 272 276 279 277 277 277 278 278 279 282 283 284 285 285 285
291 291 291 291 290 290 292 293 291 291 290 291 292 293 293 294 294 294 294 294 293 292 290 290 290 289 289 289 288 288 287 287 287 288 287 286 284 283 283 284 285 284 285 286 287 287 287 286 286 285 285 285 286 285 285 284 283 283 282 281 279 278 276 274 274 275 275 277 277 275 274 275 277 276 276 277 278 277 278 278 282 283 284 284 284
290 290 289 289 289 290 290 291 292 291 289 290 291 292 293 293 292 291 291 289 290 289 289 289 289 289 289 289 289 288 287 287 288 289 288 287 284 282 282 282 282 283 283 285 286 287 286 286 286 286 286 285 285 285 285 284 282 280 279 277 276 275 273 272 273 273 273 275 277 275 274 273 275 275 274 276 276 276 276 277 276 282 283 283 283
290 290 289 289 289 290 289 291 294 291 289 289 290 291 292 292 291 290 289 288 287 288 288 288 288 288 288 286 287 288 287 287 288 288 288 286 282 282 281 281 280 281 282 284 284 285 286 285 285 285 285 285 285 284 283 282 282 280 276 274 274 274 272 272 271 272 273 275 276 276 272 273 274 275 274 275 275 275 275 276 277 278 280 280 282
289 289 289 289 289 289 289 290 289 291 289 288 289 290 291 291 290 289 289 288 287 287 286 286 287 287 287 286 286 287 287 288 288 288 288 286 283 282 281 280 280 280 283 284 283 283 283 281 280 281 281 282 281 281 280 281 280 280 277 275 275 274 272 272 272 271 270 273 275 276 272 272 272 274 274 271 270 273 275 274 276 276 276 277 278
Wind_Speed
5 5 4 4 3 3 3 3 3 3 3 3 3 3 4 3 4 4 3 3 3 3 2 2 2 2 1 1 2 2 2 2 2 2 2 2 4 6 5 4 2 5 7 8 8 9 9 10 11 12 12 14 15 15 15 15 15 15 15 15 15 15 15 13 13 13 13 13 12 10 13 15 16 16 17 15 14 14 15 14 15 16 16 15 17
5 5 5 4 4 4 4 3 3 3 3 3 4 3 4 4 4 3 3 3 3 2 1 2 2 1 1 1 2 2 1 2 2 2 3 3 3 1 8 7 4 3 5 7 7 8 8 8 9 10 11 12 13 15 15 15 15 15 15 15 16 15 13 12 13 14 13 13 12 10 10 12 14 16 17 16 15 16 17 17 18 18 17 17 17
5 5 5 5 4 4 4 4 3 3 3 3 3 3 2 3 3 3 3 2 2 0 2 2 2 2 1 2 2 2 2 2 3 3 4 4 3 5 4 8 6 5 3 5 6 6 7 7 8 9 10 11 12 12 13 13 13 13 13 13 14 14 15 14 14 13 15 15 15 15 14 13 13 14 14 15 17 19 21 21 21 20 18 20 21
5 5 4 5 4 4 3 3 3 3 3 3 3 3 3 2 1 1 2 2 2 2 1 2 2 3 1 3 3 2 3 3 4 4 4 3 5 5 5 2 9 5 6 2 3 4 5 6 7 9 9 10 11 12 12 12 13 14 14 15 15 15 16 15 15 15 15 14 15 15 16 15 14 14 14 14 14 15 16 16 18 20 19 20 22
5 6 5 4 4 4 4 4 4 3 4 3 3 3 3 2 3 2 3 2 2 3 2 3 3 2 1 3 4 4 4 4 5 5 4 3 4 5 4 4 3 8 5 5 4 1 3 5 7 8 9 10 12 12 13 13 13 14 15 16 17 17 17 17 16 16 16 15 15 15 15 15 15 16 16 17 17 16 16 17 16 16 17 18 19
6 6 6 5 5 5 5 4 4 4 3 4 4 3 3 3 2 3 3 3 3 4 4 4 4 3 3 2 2 4 4 5 5 4 2 4 4 3 3 4 4 4 2 8 6 3 3 5 7 8 9 10 11 12 13 13 13 14 14 15 15 16 16 16 16 15 15 16 16 16 16 16 16 16 17 18 18 18 17 17 17 17 17 17 18
6 6 6 6 6 6 6 5 5 5 4 4 4 4 4 4 4 4 4 4 4 3 4 5 5 6 5 4 4 4 4 4 5 4 3 3 3 1 3 3 4 2 2 1 6 5 3 5 6 7 8 10 11 13 13 14 14 14 15 15 15 16 16 16 16 16 16 15 15 15 15 16 16 16 16 16 17 17 18 18 18 17 17 18 17
7 7 6 6 6 5 5 5 6 5 5 5 4 4 4 3 4 4 4 4 4 5 4 5 5 5 3 4 5 6 6 6 5 4 3 2 2 3 3 3 1 2 2 2 0 6 5 3 4 5 7 10 12 13 14 14 14 13 14 14 15 15 15 15 14 13 13 14 13 14 14 15 15 16 16 17 17 18 19 20 20 19 18 18 19
8 7 6 6 6 6 5 6 5 5 6 5 5 4 4 4 4 4 4 4 5 6 5 5 6 6 4 4 5 6 6 5 5 3 2 3 3 3 2 1 1 2 2 1 1 1 6 3 1 1 3 6 11 13 14 14 13 13 13 13 13 12 12 12 12 12 13 13 14 15 15 15 16 17 18 18 18 19 19 20 21 21 22 22 21
8 8 7 6 6 7 6 6 6 6 6 5 5 4 4 5 5 4 3 5 6 6 7 6 5 5 5 5 6 6 6 4 3 2 3 3 3 2 1 2 1 1 2 1 1 2 1 4 5 4 4 5 9 12 13 14 14 13 13 12 11 12 13 12 13 14 15 15 15 16 17 18 19 19 19 19 19 19 20 21 21 21 22 23 23
9 8 7 7 6 7 6 6 5 6 7 6 6 6 5 6 6 6 5 5 6 6 6 5 5 6 6 7 7 7 6 5 3 2 2 1 1 2 2 2 2 1 2 1 2 2 1 3 3 4 3 7 9 10 12 13 13 13 12 11 13 13 12 13 14 15 16 17 18 19 18 19 19 18 18 18 19 19 20 21 21 21 22 22 23
9 9 8 7 7 7 6 5 6 7 7 6 7 7 7 7 6 6 7 5 4 4 4 5 6 7 8 8 7 6 6 4 3 1 2 1 3 4 4 2 2 3 2 1 2 2 3 3 3 3 4 6 9 7 11 13 12 13 14 14 13 13 13 14 16 16 16 16 16 16 17 18 18 18 18 18 19 19 19 20 20 20 21 22 22
8 9 8 7 7 7 7 6 7 8 8 8 7 6 6 7 6 6 7 7 6 6 5 4 6 7 7 8 7 7 4 2 3 4 2 2 2 3 2 2 2 2 2 1 1 1 2 3 3 3 3 3 3 9 11 13 11 13 15 15 14 14 14 14 15 15 14 14 15 16 16 16 16 16 18 18 18 19 20 21 22 22 22 22 22
8 9 8 9 8 8 8 8 8 9 8 6 6 5 6 7 6 7 6 7 7 6 5 4 5 6 5 4 5 4 3 4 5 6 4 2 2 2 1 1 3 1 1 2 2 2 3 3 2 3 3 2 3 3 5 6 7 9 15 16 15 13 13 12 13 13 13 14 15 15 16 16 16 17 18 18 20 20 20 20 21 22 22 22 23
10 9 9 10 9 8 8 8 9 9 7 7 7 7 7 8 8 7 6 6 5 4 5 6 5 5 4 3 5 2 4 4 4 6 6 4 4 3 0 2 2 2 1 2 3 3 3 3 3 3 3 3 2 2 5 5 4 4 15 16 14 14 13 12 13 13 14 14 14 15 15 16 17 18 19 19 20 20 21 21 21 22 22 22 22
12 11 9 9 9 9 8 8 9 10 7 7 8 8 8 9 9 9 7 8 6 6 6 6 7 5 4 6 1 1 4 6 5 6 8 5 7 5 3 2 3 1 1 3 3 2 1 2 2 3 2 3 2 4 4 4 7 7 11 11 12 13 13 12 13 14 15 15 16 16 16 17 17 18 18 19 19 20 20 21 21 22 23 23 23
11 11 10 10 10 9 9 9 9 8 7 8 8 10 9 9 9 9 9 8 8 6 5 7 8 6 5 2 3 4 5 5 2 2 6 6 5 3 4 1 1 0 1 2 2 2 3 3 3 3 2 3 3 4 4 5 5 5 8 9 11 13 13 13 14 14 15 16 16 16 16 17 17 18 18 18 19 19 20 20 20 21 21 21 22
11 13 13 10 10 11 10 9 9 8 8 8 9 9 11 10 10 9 10 10 8 6 5 6 6 7 6 6 5 4 3 2 2 3 6 3 7 5 5 3 2 2 1 2 3 2 2 3 2 3 2 3 3 3 3 4 5 5 6 8 13 13 13 13 14 15 16 16 16 16 17 17 18 18 18 18 18 19 19 19 19 20 21 21 22
15 15 13 10 10 10 11 10 10 10 9 9 10 10 9 8 7 9 10 7 6 8 9 6 4 4 4 5 4 3 3 2 3 2 3 4 0 4 4 3 3 5 3 4 1 2 1 3 2 3 3 3 3 3 3 4 6 6 10 12 12 12 13 13 14 15 16 16 17 17 17 17 17 17 17 18 18 18 19 19 20 20 21 21 21
14 15 15 13 11 12 12 11 12 12 10 10 10 9 9 8 9 9 9 9 9 10 10 7 6 5 6 6 5 4 4 3 3 4 2 2 4 5 2 7 2 1 5 3 1 2 1 3 1 2 3 3 3 3 3 4 5 5 6 11 12 12 12 13 13 13 14 15 16 16 16 17 17 17 17 18 18 19 19 20 20 21 21 22 23
14 14 14 14 11 13 13 11 12 11 9 9 9 10 11 12 11 10 11 10 10 9 9 8 7 6 5 6 6 6 6 6 4 5 4 5 6 6 5 3 1 1 4 6 3 2 2 3 1 2 3 3 3 3 3 4 5 5 6 10 11 11 11 12 12 12 13 13 14 15 16 17 17 17 18 18 19 19 19 20 21 21 22 23 23
14 14 12 12 10 10 11 11 10 9 9 9 10 11 11 11 10 10 11 12 10 9 10 9 7 6 6 5 6 5 5 3 2 4 4 6 5 3 2 3 3 3 1 3 4 3 3 2 2 2 3 3 2 3 2 5 5 4 5 6 8 10 11 12 12 12 12 13 14 15 16 16 17 18 18 19 19 19 19 20 21 21 22 23 23
11 10 12 11 11 11 11 11 10 10 10 9 8 8 9 8 7 8 9 10 8 9 9 9 7 6 6 5 5 6 6 5 6 7 6 4 3 5 6 4 2 4 0 1 4 3 2 2 3 2 3 2 2 2 2 5 6 6 9 1 6 9 11 12 12 12 12 13 14 15 16 16 17 17 18 19 19 20 20 21 21 22 22 23 24
11 11 12 14 12 12 13 14 11 10 11 9 9 8 6 5 7 8 8 9 9 9 8 7 6 4 7 7 7 7 6 7 6 7 7 5 6 4 4 2 1 3 2 1 5 3 3 2 2 3 2 2 3 2 1 4 5 10 7 1 5 8 12 12 12 12 13 14 14 15 15 15 16 17 18 19 19 20 20 21 21 22 23 23 24
10 11 13 13 11 12 13 12 10 10 9 10 9 9 9 9 10 10 9 9 8 8 5 8 8 8 8 8 7 7 5 2 3 5 4 3 4 3 2 2 4 2 2 1 1 2 3 2 2 3 2 3 2 2 1 2 4 7 8 3 4 6 9 11 11 11 12 12 13 13 14 15 16 16 17 18 19 19 20 21 21 22 23 24 24
12 14 14 14 12 11 10 11 11 11 11 11 11 10 10 9 9 10 10 8 7 9 8 8 8 8 7 6 5 2 2 2 4 4 5 5 4 5 3 0 1 2 3 2 1 1 3 2 2 2 2 3 2 2 2 2 3 7 10 6 4 5 9 10 10 10 11 11 12 13 13 14 16 17 18 19 19 20 21 21 22 23 24 25 25
13 12 11 10 10 10 10 11 10 10 10 11 10 10 10 8 7 9 8 7 8 8 8 8 8 8 7 6 5 3 3 3 4 5 4 4 4 4 5 3 3 4 5 2 2 3 2 4 3 2 2 3 2 2 2 1 4 7 9 2 1 4 9 10 11 11 11 12 13 14 15 16 17 18 19 19 20 21 21 22 23 24 24 25 25
9 9 9 10 11 13 11 11 10 11 11 10 10 9 9 9 8 8 10 7 8 9 7 7 8 9 8 5 5 5 5 5 4 5 5 4 3 4 4 4 5 4 3 2 3 3 3 3 3 2 2 2 2 1 0 1 3 6 6 2 2 1 8 12 12 11 12 13 14 15 16 17 17 18 18 19 19 20 20 21 22 23 24 24 24
8 8 9 11 11 11 11 11 11 10 10 10 9 8 8 9 8 7 8 8 7 8 7 7 6 7 6 8 7 6 5 5 5 4 4 4 2 4 3 5 6 6 3 3 4 4 3 2 2 3 3 3 2 2 2 2 4 5 4 3 3 2 7 13 13 11 12 13 15 16 15 16 16 17 18 18 19 20 20 21 22 23 23 24 25
7 6 9 11 11 11 10 10 9 9 9 9 10 9 9 8 8 7 7 7 7 6 7 7 7 7 7 6 5 6 5 6 5 5 4 5 4 4 3 3 4 6 3 3 2 2 4 3 1 3 3 3 2 1 1 1 6 5 3 3 3 3 8 12 12 9 10 12 14 15 15 15 16 16 17 18 19 20 20 21 22 22 23 24 24
8 7 9 10 9 9 9 8 8 9 8 8 9 9 9 8 8 6 6 8 8 7 6 7 6 7 7 7 6 6 5 5 5 5 4 5 4 4 3 3 4 5 3 2 2 1 1 3 3 4 3 2 1 0 0 1 2 2 3 3 3 6 10 7 6 7 8 10 13 14 15 15 15 16 16 17 19 20 20 21 22 23 23 24 24
8 9 8 9 9 9 9 9 9 8 9 8 9 9 8 8 7 6 6 7 7 7 6 5 6 7 7 7 6 6 6 5 5 5 6 4 4 4 4 5 5 4 3 3 3 3 1 1 4 4 3 1 0 0 1 1 1 3 2 3 4 7 5 4 7 6 5 8 12 13 14 14 15 15 15 17 19 20 21 21 22 23 23 23 23
8 9 8 9 9 9 9 9 9 9 9 9 7 7 7 7 6 6 6 7 7 6 7 6 5 7 7 8 7 6 7 7 6 6 5 5 5 4 4 4 5 4 5 4 4 2 2 4 2 1 3 1 1 1 0 1 2 2 3 3 5 4 4 3 4 7 4 6 10 13 14 14 14 14 15 16 18 20 21 21 22 23 22 23 23
8 8 9 8 9 9 9 9 9 9 9 9 7 7 7 6 6 6 6 6 6 6 6 7 6 6 7 7 7 7 6 7 7 6 6 5 5 5 4 4 4 4 4 4 4 3 3 3 1 2 1 1 1 0 1 2 2 2 3 3 4 3 3 4 4 3 6 5 10 13 14 14 13 13 14 16 18 19 20 21 21 22 22 22 23
6 7 7 6 7 8 9 9 9 8 8 7 7 7 7 8 7 6 6 7 7 7 7 7 7 7 7 8 8 7 5 6 5 5 6 6 4 5 5 4 4 4 4 3 2 3 2 1 2 1 2 1 1 1 1 1 2 2 3 4 3 3 3 4 4 3 5 7 11 13 14 13 13 14 14 16 19 19 19 20 21 21 21 22 23
5 4 4 5 6 7 7 7 7 7 7 6 7 7 9 8 8 8 7 6 8 9 9 9 8 8 8 8 7 7 7 7 6 5 5 5 5 4 5 4 4 4 3 1 1 1 2 2 2 3 1 1 2 1 1 1 2 2 3 4 3 4 4 4 3 3 4 9 11 12 12 13 14 13 14 16 18 19 19 19 19 20 21 21 22
5 5 4 4 5 6 7 7 6 6 7 7 7 7 9 10 10 10 9 8 7 7 8 8 8 8 8 8 8 7 8 8 6 6 5 5 4 4 4 4 4 4 3 4 3 2 2 2 2 1 2 2 3 2 3 1 2 3 3 3 3 4 4 3 3 3 6 7 8 8 10 12 13 13 15 16 17 18 18 18 18 20 20 21 22
5 4 5 4 6 6 6 6 6 6 6 8 9 8 6 7 8 8 10 10 8 7 7 7 8 7 8 8 8 8 8 8 7 6 6 7 5 5 6 5 5 4 4 4 3 4 4 3 3 2 4 3 2 3 3 1 2 2 2 1 3 3 3 4 3 3 2 2 3 3 6 8 11 14 13 15 16 17 17 18 19 19 18 19 21
6 5 4 5 3 4 4 4 5 6 6 4 5 8 8 8 8 8 8 8 7 6 6 7 6 6 6 7 8 7 7 7 8 8 7 7 5 6 6 7 5 6 6 5 5 5 4 4 3 4 3 3 3 2 1 1 3 3 1 2 3 3 3 4 6 3 2 2 4 7 8 11 12 9 11 14 15 14 16 18 18 18 16 20 22
4 5 5 5 3 3 4 5 4 4 6 7 6 5 7 9 9 7 7 9 9 7 6 7 6 5 5 5 5 6 6 6 7 7 8 8 7 8 8 7 7 7 6 5 5 5 5 4 4 4 3 2 2 2 1 1 1 1 1 0 3 4 4 4 4 6 3 2 3 4 7 7 7 9 11 12 13 15 16 13 14 14 16 22 23
3 3 4 5 6 5 3 4 5 5 7 7 7 8 8 6 8 10 8 9 10 9 7 7 7 6 6 5 5 4 5 7 9 7 8 7 8 9 8 8 9 8 6 5 5 6 5 4 3 2 2 2 2 1 1 1 0 1 2 1 3 3 4 5 5 4 3 4 4 4 5 6 7 6 7 6 6 10 10 12 10 12 17 21 22
4 4 4 4 5 6 6 5 5 4 5 5 8 14 12 10 8 7 7 7 8 9 10 8 7 6 5 5 6 9 10 10 10 9 9 9 7 7 9 10 9 7 5 6 5 5 4 3 3 3 3 4 3 2 2 1 0 1 1 2 3 3 4 4 5 2 3 3 7 9 6 4 5 7 6 5 6 7 6 6 8 13 18 22 22
4 5 5 6 5 5 7 8 8 6 5 5 10 13 13 13 12 10 9 8 8 8 8 9 8 7 6 6 6 7 8 8 8 9 9 7 4 7 11 9 7 7 7 7 5 5 4 3 3 3 3 3 3 2 2 0 1 0 2 2 3 3 3 5 5 5 2 8 7 9 9 4 4 7 5 4 6 6 6 7 17 19 20 22 22
4 4 5 5 5 5 5 4 5 7 7 8 12 11 14 13 9 10 9 9 8 7 7 7 7 7 7 6 6 5 6 8 8 8 8 7 6 7 7 5 4 3 4 5 5 5 4 4 4 4 3 3 2 1 1 0 1 2 2 2 2 2 3 3 3 5 4 7 8 8 10 4 4 4 6 6 5 4 7 14 19 19 20 20 22
4 4 5 5 5 6 7 7 5 4 7 11 13 14 14 14 13 11 7 8 8 7 7 7 8 7 7 7 7 6 7 10 9 9 9 9 7 7 6 5 4 4 5 2 3 1 3 2 3 3 3 2 2 2 1 0 1 2 2 2 2 2 3 3 4 5 7 6 6 7 9 8 5 5 7 7 5 5 7 11 18 20 19 19 22
4 5 4 6 4 6 7 7 7 5 5 7 10 13 13 14 13 10 8 8 7 7 7 7 7 8 8 8 8 8 9 9 8 9 9 9 9 8 7 7 6 6 6 6 2 2 1 2 2 3 2 2 1 1 0 0 1 2 2 3 2 3 3 4 5 7 8 5 4 5 9 5 4 7 7 6 5 6 7 12 19 18 17 19 22
6 6 4 6 6 3 5 6 6 5 5 8 10 13 14 14 13 10 7 6 6 6 6 6 7 7 8 8 8 9 10 10 9 10 10 10 9 8 7 6 6 5 4 4 4 3 2 2 2 2 1 1 1 0 1 1 1 1 2 2 3 3 4 3 4 5 4 2 3 3 5 8 7 10 7 5 6 6 5 11 15 14 16 20 22
4 4 3 3 4 4 4 6 6 6 5 8 10 13 14 13 12 7 7 6 6 6 6 7 7 7 8 8 8 9 10 10 11 14 11 9 7 7 7 5 5 5 5 5 8 7 5 3 3 2 1 1 3 1 3 2 2 2 1 2 3 3 1 3 3 3 3 2 4 3 5 8 6 8 12 7 7 8 8 6 8 12 18 21 22
4 4 3 2 3 3 4 4 6 5 6 8 11 12 13 14 9 5 7 4 6 7 7 7 7 7 7 8 8 8 9 9 12 16 14 10 6 7 6 5 4 4 4 4 5 4 2 0 2 3 2 1 1 4 7 6 3 1 1 2 2 2 2 3 3 2 3 3 3 3 3 8 6 8 12 10 7 10 7 4 3 12 18 20 21
4 4 3 3 2 2 3 4 6 5 6 8 11 12 13 13 9 7 6 6 6 7 7 6 5 5 6 9 8 7 8 8 14 18 16 9 7 8 7 7 6 5 4 5 4 3 4 3 4 3 2 2 6 6 6 5 4 2 0 2 1 1 1 2 3 3 4 4 1 3 3 5 7 6 10 12 10 3 3 4 5 9 14 14 18
3 3 3 3 3 2 2 2 5 6 5 8 11 12 13 14 10 6 6 7 7 6 6 6 5 4 4 5 7 6 6 8 18 18 17 11 6 7 7 7 7 7 5 7 6 6 5 4 3 3 3 6 3 2 3 5 3 1 0 1 0 0 1 1 2 3 3 1 2 4 3 5 6 5 7 10 9 6 4 2 10 9 10 9 8
Wind_Direction
177 177 178 175 177 183 190 202 203 207 196 205 202 200 214 208 219 213 216 230 209 213 220 239 266 260 308 301 287 282 297 290 293 316 287 300 307 128 143 142 291 299 312 319 322 325 328 329 330 331 332 331 334 334 337 340 343 342 339 337 335 336 338 341 337 329 326 319 310 311 308 299 291 290 288 288 285 286 285 287 289 286 285 282 284
173 176 168 172 172 177 194 207 199 209 206 208 200 215 199 199 212 220 213 230 245 224 269 260 238 255 263 319 273 290 289 299 301 295 313 304 293 194 164 166 200 262 298 312 317 326 331 335 338 339 339 338 340 342 344 347 346 343 341 338 338 339 347 352 352 354 351 341 324 312 299 291 292 290 286 286 285 280 280 285 290 284 283 286 281
176 176 171 171 178 177 195 192 205 202 207 217 188 219 227 210 198 211 210 229 250 209 258 272 236 223 207 250 286 287 277 285 297 304 303 310 323 322 179 175 184 201 266 294 316 327 338 344 348 350 349 352 353 352 350 348 347 344 341 339 340 347 352 357 359 358 0 1 1 352 337 325 320 310 306 295 293 293 291 289 289 286 287 287 287
188 177 179 178 181 183 189 196 202 196 196 206 188 207 223 228 179 286 318 298 264 250 220 263 246 267 336 273 273 279 293 296 303 300 292 299 296 295 304 196 184 193 191 257 301 326 345 353 357 1 5 3 1 358 355 352 350 349 352 353 353 352 353 2 5 5 5 10 11 5 0 356 353 346 335 322 315 312 304 297 292 292 289 287 289
191 193 194 199 195 195 190 192 214 191 185 181 190 196 209 209 191 206 232 240 255 268 209 246 253 270 277 307 311 300 286 292 299 301 303 312 300 293 311 319 317 177 169 191 209 320 356 3 10 12 9 6 3 359 358 353 355 357 359 360 1 357 358 4 3 3 4 7 6 4 359 355 353 351 349 346 342 332 325 321 319 314 301 293 291
204 199 201 212 204 211 223 203 211 191 190 176 196 201 210 195 204 202 207 234 248 238 266 272 278 289 269 250 252 279 301 303 292 298 304 291 289 308 310 317 314 316 166 182 171 159 14 19 22 16 13 11 7 3 360 359 358 359 0 0 358 355 356 359 359 358 359 360 359 358 353 353 353 351 349 343 337 335 332 328 325 324 318 312 305
207 203 205 215 215 213 216 214 210 201 202 195 209 208 217 222 222 240 238 244 255 291 296 280 278 290 295 295 281 291 290 288 289 284 279 267 283 308 306 294 316 312 307 324 148 127 75 33 20 16 20 17 12 7 4 2 360 357 358 355 354 354 358 360 357 356 358 359 357 353 350 349 348 345 341 337 337 336 334 333 333 331 325 318 314
206 206 206 209 223 222 215 213 211 201 216 208 213 236 226 233 243 249 270 256 253 256 248 261 279 288 299 300 293 290 289 288 280 290 287 328 342 300 299 318 322 18 331 284 95 121 106 56 15 19 28 23 17 14 9 7 5 2 357 356 356 359 2 2 359 360 356 356 356 354 354 354 353 353 352 350 349 347 346 345 343 343 342 336 335
205 203 212 214 220 225 221 217 193 198 211 216 209 227 236 228 236 229 255 286 280 266 266 275 275 281 302 291 281 284 285 281 288 295 340 287 264 278 247 109 118 233 245 28 1 117 128 120 183 212 79 47 27 21 16 14 11 9 3 4 4 5 11 8 6 10 11 10 6 3 2 5 8 4 1 358 354 352 350 349 347 347 346 345 346
200 201 209 217 223 228 223 220 192 204 213 210 218 222 241 239 240 228 205 247 262 270 272 273 283 293 282 294 295 284 278 276 284 327 275 280 260 192 145 122 124 46 56 31 30 23 20 173 195 211 129 63 55 36 27 25 19 18 14 12 10 17 18 16 15 21 17 11 10 11 11 9 7 4 359 356 354 352 351 351 349 347 347 346 347
198 198 205 209 216 224 222 216 197 207 214 214 216 227 229 236 243 251 234 234 266 273 280 294 287 286 287 287 290 279 272 271 280 270 286 197 125 110 153 143 104 68 57 29 51 12 5 357 4 0 128 94 73 54 45 35 24 25 20 14 19 18 17 19 18 23 16 14 12 10 8 6 4 360 356 355 357 355 351 349 347 348 347 346 345
197 196 200 205 211 214 215 212 207 217 212 205 217 229 226 223 222 236 255 254 238 259 269 267 271 280 284 271 254 274 270 272 282 273 199 164 172 183 157 148 143 104 75 48 40 21 0 3 356 13 358 90 106 80 75 52 35 31 24 20 17 14 15 16 16 19 14 13 11 8 7 7 4 359 358 358 356 354 351 347 347 347 346 345 344
199 196 197 199 209 206 201 206 216 221 215 215 220 225 221 234 239 231 241 252 249 242 247 260 268 273 259 250 243 233 233 251 240 189 208 174 165 173 136 195 104 38 81 61 30 44 5 10 15 4 22 3 106 115 107 68 39 32 26 16 10 10 7 13 13 15 12 11 12 11 10 9 6 2 0 358 356 355 352 352 351 349 347 346 344
199 204 198 197 202 209 208 201 203 217 219 213 212 212 227 225 227 235 218 237 253 246 236 210 235 245 276 293 312 280 240 182 203 187 179 172 165 164 173 120 67 70 57 338 52 23 33 15 14 22 30 42 53 31 58 55 39 32 28 19 10 10 8 14 16 18 16 16 15 13 12 10 8 5 3 359 359 357 355 353 351 349 348 347 346
199 199 202 197 197 194 200 203 206 207 198 201 203 211 220 226 227 233 238 209 225 236 225 195 257 262 267 308 258 242 145 183 186 211 188 177 164 172 147 77 93 40 342 20 11 23 36 25 19 43 56 52 39 50 67 62 49 59 38 19 11 12 12 14 17 19 18 19 18 15 13 11 8 6 4 1 360 358 355 353 353 350 348 348 348
208 204 202 196 195 195 197 205 213 205 192 195 201 207 216 224 227 229 238 251 211 225 212 213 223 229 230 213 259 280 259 193 166 182 208 165 163 189 156 165 130 205 273 43 2 34 44 51 54 63 57 59 44 60 66 36 32 61 46 10 6 13 12 15 17 19 19 18 18 15 13 12 10 8 6 3 1 359 356 354 353 351 351 350 348
212 206 195 197 197 203 203 205 212 196 190 200 206 219 216 220 215 218 217 229 239 227 199 199 211 237 266 244 207 209 226 90 166 201 122 144 180 209 111 197 82 43 336 54 19 23 41 72 71 65 60 65 61 61 57 44 20 37 27 4 9 14 14 14 18 18 18 17 17 15 13 12 10 8 6 3 1 358 355 354 353 351 349 348 346
212 209 204 190 205 210 207 206 202 198 196 203 208 216 219 219 217 218 218 220 233 229 226 174 215 212 226 256 310 312 356 79 59 167 158 185 176 196 163 188 128 313 38 57 37 25 65 89 67 85 68 71 71 54 46 49 32 38 30 8 13 15 16 16 16 16 15 15 15 13 11 11 8 6 3 0 357 354 352 351 350 348 346 345 344
216 216 213 193 198 207 209 209 209 207 203 208 208 219 216 209 208 212 222 214 211 234 235 186 190 220 219 235 257 292 259 261 235 306 286 150 155 145 187 143 168 232 145 83 32 46 74 85 96 96 86 82 64 45 44 46 38 31 32 10 15 17 17 18 17 14 12 10 11 10 9 8 6 2 359 357 354 351 351 350 348 346 345 343 340
212 212 213 205 196 205 208 209 212 214 208 212 211 211 217 212 207 202 212 217 211 224 227 223 177 203 191 213 219 220 258 234 233 260 281 286 181 199 174 160 213 310 94 119 80 80 100 96 92 116 109 85 64 44 46 48 39 13 20 10 16 17 18 18 18 13 11 8 8 6 6 4 1 359 356 354 352 351 351 349 347 345 344 341 340
212 212 211 213 204 209 207 206 209 212 204 208 205 207 211 213 200 200 211 216 219 216 226 226 211 225 166 208 203 215 216 220 211 190 200 211 241 229 188 128 349 155 140 131 96 94 109 109 121 117 116 96 81 59 57 67 46 10 7 5 15 18 18 18 15 12 10 7 7 3 2 1 357 355 355 353 352 351 350 349 347 345 342 341 340
211 210 210 211 205 198 207 207 201 200 204 207 203 203 207 210 211 204 206 213 209 208 215 223 218 214 204 182 193 205 204 177 180 200 221 234 245 226 232 256 256 210 32 119 109 119 140 130 145 145 106 88 62 71 49 79 52 18 340 344 13 16 18 14 14 10 8 7 5 2 1 358 355 355 354 353 352 351 351 349 347 345 343 341 340
207 207 209 204 204 194 204 208 206 201 205 208 209 206 198 196 201 206 206 208 205 207 202 215 228 207 181 186 199 200 197 170 184 196 188 171 193 233 236 229 216 277 239 100 104 132 135 124 139 139 120 91 66 60 63 99 67 18 339 311 23 17 13 11 11 8 8 6 5 1 0 357 355 354 353 353 352 352 351 349 347 345 342 341 339
206 206 212 208 206 202 202 208 205 201 204 201 202 206 200 192 194 200 203 200 207 214 205 191 208 213 208 206 210 222 218 199 198 181 191 199 187 198 201 172 234 230 216 136 108 141 147 127 137 124 100 90 78 44 42 124 72 25 343 358 40 20 12 6 8 7 7 5 2 0 357 355 354 354 354 353 352 351 350 348 345 342 341 340 339
206 205 209 203 201 202 204 206 206 200 192 195 197 200 203 205 209 209 208 203 204 206 193 188 193 202 208 212 212 220 226 189 159 165 183 162 175 173 196 170 250 293 328 332 161 142 148 131 143 137 120 92 90 65 54 69 74 2 344 267 99 39 19 6 4 4 6 2 1 358 355 353 353 355 354 352 351 349 347 345 343 342 341 340 338
211 211 208 207 208 209 209 208 204 201 200 199 198 198 198 202 202 206 206 199 196 201 202 193 198 203 213 206 213 197 180 147 168 175 171 165 175 180 138 102 242 270 279 263 113 172 137 132 145 140 133 93 79 92 36 69 69 1 328 298 123 77 27 4 357 358 2 0 359 357 355 353 353 355 354 352 350 348 346 344 342 341 339 337 336
219 216 203 200 203 206 212 206 204 202 198 201 200 198 196 202 197 197 195 195 196 190 196 189 193 197 203 198 169 172 180 156 177 174 166 176 164 173 155 160 225 233 240 193 177 229 149 140 146 130 82 74 76 91 48 57 65 359 313 309 352 123 29 359 352 354 359 358 357 356 355 356 356 355 353 352 349 347 345 342 339 338 336 336 335
218 207 196 200 207 210 210 209 207 207 203 203 200 197 191 200 202 194 195 187 190 186 187 185 189 191 198 180 151 170 170 173 175 166 161 181 173 133 161 180 218 231 189 209 196 202 169 159 112 102 106 86 78 73 92 113 55 348 310 338 321 335 22 351 345 347 355 356 357 357 356 355 353 351 350 348 345 342 339 338 336 335 335 334 334
217 193 198 203 210 211 209 205 210 207 204 201 201 195 190 194 201 193 187 179 177 179 175 182 184 182 180 180 168 166 164 157 159 164 157 133 134 137 169 181 205 223 196 203 198 184 154 195 164 143 109 84 59 28 36 46 40 1 319 335 332 342 1 339 332 341 349 352 355 354 352 351 349 347 346 344 341 338 335 334 333 333 333 333 334
211 189 197 206 208 205 206 204 206 203 198 192 193 192 192 196 196 195 182 161 174 177 180 177 180 174 171 171 172 149 155 151 158 152 131 141 153 154 169 204 219 224 216 205 163 143 139 147 166 124 111 93 61 36 50 335 84 350 325 334 331 349 337 317 311 330 340 345 348 348 345 344 343 343 342 341 338 335 333 331 331 330 331 331 331
203 195 199 208 203 198 198 198 195 195 192 189 189 193 193 198 194 192 172 169 178 179 174 176 170 164 163 166 160 139 149 151 135 129 134 132 148 148 171 193 225 231 220 231 167 179 96 154 111 66 85 76 70 83 164 300 64 318 323 330 320 328 307 289 298 319 323 339 344 343 341 337 336 336 336 336 334 331 329 329 328 327 327 328 328
197 203 201 206 197 191 191 191 193 194 194 192 188 190 188 193 180 176 174 172 173 171 166 167 159 158 153 151 142 143 144 132 140 139 135 146 137 158 166 187 205 221 222 213 199 154 127 78 98 107 78 58 13 87 359 309 272 231 347 317 313 311 307 327 316 305 308 325 333 331 329 328 327 328 330 332 329 327 326 326 325 325 325 324 325
191 201 198 199 197 197 195 197 195 195 195 195 187 179 178 178 172 172 167 172 171 163 159 153 145 147 149 144 143 143 149 147 141 137 136 138 146 157 163 179 194 193 206 195 193 185 109 66 73 94 85 59 317 103 301 307 316 353 341 318 312 305 302 303 306 301 286 305 313 316 315 316 317 319 325 327 325 325 324 324 324 322 321 321 323
194 199 197 195 198 201 202 199 199 197 196 193 177 167 168 166 162 161 164 166 165 160 160 152 141 139 141 141 141 147 152 140 138 137 135 143 159 158 172 194 185 188 205 196 200 180 183 111 151 122 123 90 296 291 324 333 330 348 321 300 286 276 284 282 281 284 285 287 303 309 309 310 313 316 319 321 322 323 323 322 321 319 319 321 323
200 205 197 187 195 200 200 196 192 191 189 183 173 167 166 165 161 158 162 164 163 159 159 152 150 145 144 147 148 147 136 126 133 130 138 145 152 161 172 186 188 185 189 217 194 191 189 153 98 147 161 153 237 285 335 308 309 294 285 274 272 278 266 265 267 272 275 287 304 307 307 310 313 316 319 320 319 319 320 318 317 318 320 322 325
188 196 182 189 194 197 195 192 188 184 180 171 167 169 161 157 158 159 156 163 165 164 161 156 154 156 153 148 152 148 143 136 140 138 135 144 154 158 165 175 197 176 147 170 237 181 173 174 187 171 159 166 234 235 236 246 251 273 259 261 258 269 274 267 274 281 284 292 299 300 306 313 314 317 318 318 317 317 317 316 318 320 323 325 327
188 188 200 187 190 188 191 188 184 180 176 168 167 173 169 163 164 161 157 154 161 161 158 159 159 156 154 156 154 157 156 145 145 142 145 146 148 157 157 150 177 160 154 166 179 184 166 197 188 154 174 216 208 225 216 200 267 255 250 243 271 279 278 278 270 269 278 280 284 293 304 308 312 315 318 318 317 315 317 320 322 323 324 328 331
185 184 183 185 185 189 184 183 179 176 172 172 168 167 163 152 152 159 161 155 159 157 151 152 160 159 161 159 159 161 161 154 145 132 142 147 145 148 154 162 171 152 156 156 160 170 197 211 203 203 191 199 213 209 169 178 242 274 271 287 290 270 281 288 279 282 280 287 301 298 299 306 308 310 315 319 318 318 323 325 323 322 326 333 336
177 180 181 177 190 181 178 166 172 165 160 161 163 155 149 146 144 148 145 134 135 141 148 149 152 152 153 152 152 152 153 147 147 151 148 148 148 160 164 168 163 161 162 164 171 181 198 206 213 211 209 205 183 219 142 161 234 233 285 329 303 292 281 292 296 288 287 295 298 302 305 308 307 310 321 326 321 320 325 324 324 325 334 338 333
173 176 175 169 146 135 148 156 148 147 152 151 146 148 148 149 142 144 151 145 139 140 138 133 126 116 110 111 120 135 144 147 146 146 151 153 158 170 172 170 167 167 168 169 176 187 191 205 210 203 200 191 224 174 174 214 282 242 99 330 285 296 297 294 285 303 305 302 307 320 311 310 313 319 330 330 322 323 324 324 323 331 340 332 329
125 136 140 140 140 129 114 126 136 148 153 160 155 151 140 134 141 146 156 152 145 139 129 114 105 105 106 110 117 118 104 107 124 141 153 155 168 172 172 170 168 172 170 174 183 186 196 196 209 192 194 215 187 149 232 214 210 241 295 288 278 277 293 293 293 286 301 324 318 314 311 317 320 327 329 324 319 321 323 329 330 335 327 327 328
127 130 127 133 144 147 142 136 132 142 151 158 164 155 151 145 143 136 136 141 137 140 137 128 116 114 113 107 94 101 108 112 113 123 136 153 181 181 171 170 172 175 174 175 181 189 192 187 197 181 198 203 173 167 209 223 177 276 292 300 293 298 299 298 285 300 335 359 333 325 323 319 326 318 321 315 319 324 320 329 333 326 325 327 327
139 140 141 142 147 153 157 155 151 148 151 150 163 158 150 148 144 139 141 141 142 141 143 142 136 132 122 112 116 111 111 117 124 132 140 141 151 161 168 178 184 176 168 175 188 188 181 187 180 183 199 196 178 156 218 190 281 23 302 294 295 313 328 330 321 315 21 20 334 321 312 328 334 314 308 312 320 315 323 327 325 324 324 325 327
137 138 146 152 147 145 138 144 158 155 151 152 155 147 139 137 140 140 145 146 141 140 142 143 140 139 132 126 126 135 149 155 157 153 153 156 154 145 142 145 155 179 194 189 177 176 186 185 176 193 186 193 159 173 210 79 3 334 291 296 293 317 318 313 304 306 323 4 332 313 302 323 327 299 312 317 309 309 327 324 320 320 323 325 330
128 141 142 134 148 145 144 141 143 144 135 155 152 149 146 144 145 138 136 137 139 145 147 145 145 142 140 139 143 157 161 155 157 164 167 166 159 151 144 148 177 191 204 228 331 182 181 204 173 178 184 165 160 199 108 77 323 270 289 293 313 323 317 306 299 308 314 336 316 306 302 313 322 323 309 310 312 326 322 318 317 317 320 329 332
115 109 133 127 130 149 144 142 135 118 115 148 150 148 146 143 139 131 137 141 143 145 144 146 150 154 153 155 157 162 160 166 172 167 165 163 165 164 169 178 186 193 207 198 166 352 313 176 161 183 163 143 194 81 44 82 252 271 299 296 329 313 306 296 310 301 302 305 310 333 299 306 335 318 309 308 325 321 310 312 316 314 325 332 331
139 142 157 141 128 123 114 112 112 114 125 153 152 148 144 143 139 131 136 135 137 137 135 148 155 155 158 158 165 167 168 178 183 175 169 170 169 170 173 178 178 175 186 181 181 184 195 192 184 191 144 111 170 135 245 251 274 300 358 325 309 292 279 290 289 269 281 305 42 355 288 314 331 317 307 319 318 305 301 307 306 319 331 333 330
100 105 84 84 122 130 121 124 122 128 138 160 156 152 149 147 140 132 135 147 153 154 153 160 157 158 165 170 170 173 175 184 182 178 174 166 165 166 169 175 170 173 187 183 183 194 189 190 182 187 152 121 73 8 53 54 5 13 336 315 287 270 334 316 299 307 296 350 11 295 288 306 323 317 308 317 312 305 304 290 296 335 335 333 330
121 119 124 116 126 134 136 142 141 133 144 167 163 158 153 145 134 133 137 144 151 158 161 161 163 166 173 177 176 171 175 185 176 180 176 166 155 164 169 174 171 174 179 143 138 129 77 140 68 41 32 57 238 110 96 82 81 53 325 293 290 46 354 316 304 326 303 349 311 27 333 302 324 326 309 313 319 303 291 288 320 338 337 334 329
135 136 130 119 118 144 154 154 161 149 158 169 167 163 160 158 151 147 155 154 155 162 160 163 166 172 179 179 178 173 175 178 171 184 180 168 159 168 169 174 174 183 182 154 166 176 179 126 108 130 183 193 121 115 99 87 68 34 151 243 1 47 292 276 287 310 309 280 11 7 332 294 326 326 317 312 307 224 289 310 339 331 334 330 330
123 124 126 135 134 124 155 134 134 145 146 163 170 169 168 170 162 161 160 159 162 169 162 162 166 170 170 181 196 186 178 164 174 183 184 172 161 173 174 174 181 190 192 160 169 172 166 167 178 173 181 144 171 136 111 102 113 72 95 127 246 229 270 287 299 311 315 303 130 42 355 307 329 323 342 328 319 307 180 37 341 334 330 321 329